Flag for Malta Weather past 2 weeks in Valletta, Malta

Now
86 °F

Passing clouds.


Feels Like: 92 °F
Forecast: 74 / 91 °F
Wind: 7 mph from South

Location: Luqa

Current Time: Aug 22, 2014 at 10:46:51 AM

Latest Report: Aug 22, 2014 at 10:15 AM


Visibility: N/A

Pressure: 29.98 "Hg

Humidity: 62%

Dew point: 72 °F

Location of VallettaLocation

Historic Weather in Valletta — Graph

°F

Valletta temperature yesterday

Maximum temperature yesterday: 88 °F (at 2:15 PM)
Minimum temperature yesterday: 77 °F (at 2:15 AM)
Average temperature yesterday: 81 °F

Past Weeks' High & Low Weather Summary

 TemperatureHumidityPressure
High93 °F (Aug 14, 3:45 PM)100% (Aug 22, 3:15 AM)30.07 "Hg (Aug 22, 3:15 AM)
Low70 °F (Aug 18, 4:45 AM)26% (Aug 12, 11:15 AM)29.86 "Hg (Aug 13, 6:15 PM)
Average80 °F69%29.97 "Hg
* Reported Aug 7 9:15 AM — Aug 22 9:45 AM, Valletta, Weather by CustomWeather, © 2014

Note: Actual official high and low records may vary slightly from our data, if they occured in-between our weather recording intervals... More about our weather records

Advertising

Valletta weather history for previous 24 hours

 ConditionsComfort  
Time TempWeatherWind HumidityBarometerVisibility
9:45 AM
Aug 22
84 °FPassing clouds.7 mph74%29.98 "HgN/A
9:15 AM81 °FPassing clouds.6 mph89%29.98 "Hg5 mi
8:45 AM79 °FFog.5 mph89%29.98 "Hg3 mi
8:15 AM79 °FFog.1 mph89%29.98 "Hg2 mi
7:15 AM75 °FFog.1 mph94%29.95 "Hg2 mi
6:45 AM75 °FFog.1 mph94%29.95 "Hg2 mi
6:15 AM75 °FPassing clouds.1 mph94%29.95 "Hg4 mi
5:45 AM77 °FPassing clouds.2 mph94%29.95 "Hg4 mi
5:15 AM75 °FPassing clouds.3 mph100%29.95 "Hg4 mi
4:45 AM77 °FPartly cloudy.5 mph94%29.95 "Hg4 mi
4:15 AM75 °FLow clouds.5 mph94%29.95 "Hg4 mi
3:45 AM75 °FPassing clouds.5 mph94%29.95 "Hg4 mi
3:15 AM75 °FPassing clouds.3 mph100%29.95 "Hg4 mi
2:45 AM77 °FPassing clouds.1 mph94%29.95 "Hg4 mi
2:15 AM77 °FWarm.1 mph94%29.95 "Hg4 mi
1:45 AM77 °FWarm.1 mph94%29.95 "Hg5 mi
1:15 AM77 °FPassing clouds.2 mph94%29.98 "Hg5 mi
12:45 AM77 °FPartly cloudy.5 mph94%29.98 "Hg5 mi
12:15 AM77 °FPartly cloudy.8 mph94%29.98 "Hg5 mi
11:45 PM
Aug 21
79 °FPassing clouds.5 mph89%29.98 "Hg5 mi
11:15 PM79 °FPartly cloudy.8 mph89%29.98 "Hg5 mi
10:45 PM79 °FPartly cloudy.8 mph89%29.98 "HgN/A
10:15 PM79 °FPartly cloudy.7 mph89%29.98 "HgN/A
9:45 PM79 °FPassing clouds.7 mph89%29.98 "HgN/A
9:15 PM79 °FPassing clouds.9 mph89%29.98 "HgN/A
8:15 PM79 °FPassing clouds.13 mph89%29.95 "HgN/A
7:45 PM81 °FPassing clouds.13 mph84%29.95 "HgN/A
7:15 PM81 °FPassing clouds.15 mph84%29.95 "HgN/A
6:45 PM82 °FPassing clouds.16 mph79%29.95 "HgN/A
6:15 PM82 °FPassing clouds.14 mph79%29.95 "HgN/A
5:45 PM84 °FPassing clouds.15 mph70%29.95 "HgN/A
5:15 PM84 °FPassing clouds.15 mph70%29.95 "HgN/A
4:45 PM86 °FSunny.14 mph62%29.95 "Hg10 mi
4:15 PM86 °FSunny.13 mph62%29.98 "Hg10 mi
3:45 PM88 °FPassing clouds.13 mph59%29.98 "HgN/A
3:15 PM88 °FPassing clouds.12 mph62%29.98 "HgN/A
2:45 PM88 °FSunny.12 mph62%29.98 "Hg10 mi
2:15 PM88 °FPassing clouds.12 mph62%30.01 "HgN/A
1:45 PM86 °FPassing clouds.8 mph66%30.01 "HgN/A
1:15 PM86 °FPassing clouds.9 mph66%30.01 "HgN/A
12:45 PM86 °FPassing clouds.8 mph66%30.01 "HgN/A
12:15 PM86 °FPassing clouds.9 mph66%30.01 "HgN/A
11:45 AM84 °FPassing clouds.10 mph70%30.01 "HgN/A
11:15 AM84 °FPassing clouds.9 mph70%30.01 "HgN/A
10:45 AM84 °FPassing clouds.8 mph70%30.01 "HgN/A
10:15 AM82 °FScattered clouds.8 mph74%30.01 "HgN/A
Weather by CustomWeather, © 2014

See weather overviewHow to use our weather pages